Find Starlink 35180

NORAD ID: 65462 Int'l Des: 2025-195 Owner: SPXS Country: US Constellation: starlink operational
LEOCIRCULAR

Live Position

Loading 3D Globe...

About Starlink 35180

Description loading...

Upcoming Passes

Passes for default location (London). Set your location on the main map for personalized predictions.

Altitude History

Loading altitude history...

Two-Line Element Set

1 65462U 25195E 26103.70795006 .00004954 00000-0 17930-3 0 9996
2 65462 53.1607 95.6295 0001672 96.5406 263.5785 15.30198246 35350
Epoch: Apr 13, 2026 • Age: 17 hours

Current Status

Altitude 485.4 km
Velocity 7.62 km/s
Sub-Earth Point -31.19°S, 47.71°W
Launch Date Sep 3, 2025
Age 0.6 years
Type internet

Technical Details

Classification Payload
Mass 575.00 kg
Dry Mass 530.00 kg
Total Mass 575.00 kg
Length 0.30 m
Diameter 4.10 m
Span 29.00 m
Shape Box + pan
Manufacturer SPXS
Bus Type Starlink V2MO
Phase Status In Orbit
Owner/State SPXS/US

Most Searched